Simultaneous Nadir Overpasses (SNOs) Predictions

Prediction of SNOs between METOP-A and TERRA Satellite Orbit:

Table of predicted SNOs for the next 14.0 days since TLE Epoch: 9/8/2013
Index Date (METOP-A) Time (METOP-A) Lat,Lon (METOP-A) SZA (METOP-A ) Date (TERRA) Time (TERRA) Lat,Lon (TERRA) SZA (TERRA ) Distance(km) Time Diff (sec)
1 09/10/2013 20:10:32 81.30, -75.48 79.55 09/10/2013 20:10:36 81.31, -75.44 79.56 0.88 4
2 09/10/2013 21:01:12 -81.31, 92.02 100.42 09/10/2013 21:00:03 -81.31, 92.13 100.44 1.97 69
3 09/13/2013 14:54:16 -81.30,-176.86 99.43 09/13/2013 14:55:25 -81.29,-177.04 99.42 3.33 69
4 09/13/2013 15:44:56 81.30, -9.07 80.65 09/13/2013 15:44:50 81.31, -8.97 80.66 1.88 6
5 09/16/2013 10:28:39 -81.30,-110.46 98.32 09/16/2013 10:29:37 -81.31,-110.27 98.27 3.27 58
6 09/1
